| time (UTC) | temp C | wind direction | speed KPH | gust KPH | rain 1hr cm | rain 24hr cm | rain mn cm | humidity % | barometer mb |
| 20260903215518 | 19 | 345 | 16.1 | 25.7 | 0.00 | 0.00 | 0.00 | 68 | 1016.0 |
| 20260903214520 | 19 | 355 | 17.7 | 24.1 | 0.00 | 0.00 | 0.00 | 70 | 1016.0 |
| 20260903213518 | 19 | 105 | 0.0 | 6.4 | 0.00 | 0.00 | 0.00 | 70 | 1016.1 |
| 20260903212518 | 19 | 147 | 1.6 | 4.8 | 0.00 | 0.00 | 0.00 | 69 | 1016.1 |
| 20260903211519 | 20 | 196 | 11.3 | 19.3 | 0.00 | 0.00 | 0.00 | 69 | 1016.1 |
| 20260903210519 | 20 | 336 | 8.0 | 16.1 | 0.00 | 0.00 | 0.00 | 67 | 1016.1 |
| 20260903205520 | 20 | 13 | 12.9 | 16.1 | 0.00 | 0.00 | 0.00 | 66 | 1016.1 |
| 20260903204519 | 20 | 172 | 6.4 | 9.7 | 0.00 | 0.00 | 0.00 | 66 | 1016.1 |
| 20260903203558 | 20 | 296 | 4.8 | 12.9 | 0.00 | 0.00 | 0.00 | 65 | 1016.1 |
| 20260903202518 | 20 | 3 | 3.2 | 6.4 | 0.00 | 0.00 | 0.00 | 65 | 1016.1 |
| 20260903201539 | 20 | 0.0 | 0.0 | 0.00 | 0.00 | 0.00 | 66 | 1016.1 | |
| 20260903200519 | 20 | 354 | 4.8 | 9.7 | 0.00 | 0.00 | 0.00 | 66 | 1016.1 |
| 20260903195519 | 21 | 194 | 16.1 | 40.2 | 0.00 | 0.00 | 0.00 | 66 | 1016.3 |
| 20260903194520 | 21 | 323 | 6.4 | 16.1 | 0.00 | 0.00 | 0.00 | 63 | 1016.2 |
| 20260903193518 | 20 | 19 | 3.2 | 8.0 | 0.00 | 0.00 | 0.00 | 64 | 1016.3 |
| 20260903192520 | 21 | 32 | 3.2 | 4.8 | 0.00 | 0.00 | 0.00 | 65 | 1016.3 |
| 20260903191520 | 21 | 0.0 | 0.0 | 0.00 | 0.00 | 0.00 | 63 | 1016.3 | |
| 20260903190557 | 22 | 284 | 1.6 | 4.8 | 0.00 | 0.00 | 0.00 | 61 | 1016.2 |
| 20260903185518 | 22 | 141 | 4.8 | 8.0 | 0.00 | 0.00 | 0.00 | 57 | 1016.3 |
| 20260903184520 | 22 | 0.0 | 0.0 | 0.00 | 0.00 | 0.00 | 57 | 1016.4 | |
| 20260903183518 | 22 | 34 | 4.8 | 8.0 | 0.00 | 0.00 | 0.00 | 55 | 1016.5 |
| 20260903182520 | 22 | 17 | 11.3 | 12.9 | 0.00 | 0.00 | 0.00 | 55 | 1016.5 |
| 20260903181600 | 22 | 22 | 11.3 | 14.5 | 0.00 | 0.00 | 0.00 | 56 | 1016.4 |
| 20260903180520 | 22 | 15 | 12.9 | 14.5 | 0.00 | 0.00 | 0.00 | 56 | 1016.4 |
| 20260903175519 | 22 | 23 | 12.9 | 16.1 | 0.00 | 0.00 | 0.00 | 56 | 1016.4 |
| 20260903174520 | 22 | 17 | 11.3 | 12.9 | 0.00 | 0.00 | 0.00 | 57 | 1016.4 |
| 20260903173518 | 22 | 17 | 11.3 | 12.9 | 0.00 | 0.00 | 0.00 | 56 | 1016.4 |
| 20260903172519 | 22 | 13 | 11.3 | 12.9 | 0.00 | 0.00 | 0.00 | 57 | 1016.4 |
| 20260903171517 | 22 | 18 | 9.7 | 12.9 | 0.00 | 0.00 | 0.00 | 58 | 1016.2 |
| 20260903170520 | 22 | 15 | 9.7 | 11.3 | 0.00 | 0.00 | 0.00 | 58 | 1016.2 |
| 20260903165518 | 23 | 33 | 9.7 | 11.3 | 0.00 | 0.00 | 0.00 | 54 | 1016.0 |
| 20260903164520 | 23 | 57 | 9.7 | 11.3 | 0.00 | 0.00 | 0.00 | 55 | 1015.8 |
| 20260903163518 | 23 | 61 | 8.0 | 11.3 | 0.00 | 0.00 | 0.00 | 56 | 1015.7 |
| 20260903162520 | 24 | 32 | 8.0 | 11.3 | 0.00 | 0.00 | 0.00 | 55 | 1015.6 |
| 20260903161538 | 24 | 38 | 6.4 | 11.3 | 0.00 | 0.00 | 0.00 | 54 | 1015.6 |
| 20260903160518 | 25 | 22 | 3.2 | 11.3 | 0.00 | 0.00 | 0.00 | 52 | 1015.6 |
| 20260903155519 | 25 | 24 | 4.8 | 9.7 | 0.00 | 0.00 | 0.00 | 51 | 1015.5 |
| 20260903154518 | 25 | 12 | 3.2 | 8.0 | 0.00 | 0.00 | 0.00 | 51 | 1015.6 |
| 20260903153518 | 26 | 314 | 4.8 | 8.0 | 0.00 | 0.00 | 0.00 | 47 | 1015.5 |
| 20260903152518 | 26 | 0.0 | 0.0 | 0.00 | 0.00 | 0.00 | 47 | 1015.5 | |
| 20260903151519 | 26 | 342 | 4.8 | 12.9 | 0.00 | 0.00 | 0.00 | 48 | 1015.5 |
| 20260903150539 | 26 | 3 | 16.1 | 25.7 | 0.00 | 0.00 | 0.00 | 46 | 1015.5 |
| 20260903145519 | 26 | 20 | 12.9 | 27.4 | 0.00 | 0.00 | 0.00 | 46 | 1015.6 |
| 20260903144518 | 26 | 315 | 14.5 | 20.9 | 0.00 | 0.00 | 0.00 | 47 | 1015.6 |
| 20260903143537 | 26 | 285 | 17.7 | 30.6 | 0.00 | 0.00 | 0.00 | 47 | 1015.7 |
| 20260903142518 | 26 | 260 | 11.3 | 25.7 | 0.00 | 0.00 | 0.00 | 47 | 1015.8 |
| 20260903141518 | 27 | 228 | 19.3 | 33.8 | 0.00 | 0.00 | 0.00 | 45 | 1015.7 |
| 20260903140518 | 26 | 275 | 20.9 | 30.6 | 0.00 | 0.00 | 0.00 | 47 | 1015.8 |
| 20260903135539 | 27 | 323 | 17.7 | 38.6 | 0.00 | 0.00 | 0.00 | 47 | 1015.8 |
| 20260903134520 | 26 | 315 | 17.7 | 33.8 | 0.00 | 0.00 | 0.00 | 48 | 1015.9 |
| 20260903133538 | 27 | 270 | 20.9 | 51.5 | 0.00 | 0.00 | 0.00 | 47 | 1015.9 |
| 20260903132520 | 27 | 269 | 17.7 | 33.8 | 0.00 | 0.00 | 0.00 | 47 | 1016.0 |
| 20260903131518 | 27 | 280 | 22.5 | 35.4 | 0.00 | 0.00 | 0.00 | 46 | 1016.2 |
| 20260903130519 | 26 | 356 | 16.1 | 33.8 | 0.00 | 0.00 | 0.00 | 48 | 1016.2 |
| 20260903125518 | 27 | 348 | 20.9 | 32.2 | 0.00 | 0.00 | 0.00 | 48 | 1016.3 |
| 20260903124540 | 26 | 17 | 6.4 | 12.9 | 0.00 | 0.00 | 0.00 | 49 | 1016.4 |
| 20260903123539 | 26 | 274 | 27.4 | 35.4 | 0.00 | 0.00 | 0.00 | 49 | 1016.6 |
| 20260903122521 | 26 | 280 | 14.5 | 45.1 | 0.00 | 0.00 | 0.00 | 49 | 1016.6 |
| 20260903121517 | 26 | 260 | 16.1 | 30.6 | 0.00 | 0.00 | 0.00 | 48 | 1016.8 |
| 20260903120519 | 26 | 304 | 20.9 | 38.6 | 0.00 | 0.00 | 0.00 | 47 | 1016.9 |
| 20260903115539 | 26 | 297 | 29.0 | 48.3 | 0.00 | 0.00 | 0.00 | 50 | 1017.0 |
| 20260903114520 | 25 | 338 | 12.9 | 22.5 | 0.00 | 0.00 | 0.00 | 53 | 1017.1 |
| 20260903113520 | 25 | 281 | 16.1 | 37.0 | 0.00 | 0.00 | 0.00 | 53 | 1017.2 |
| 20260903112519 | 25 | 278 | 32.2 | 48.3 | 0.00 | 0.00 | 0.00 | 53 | 1017.3 |
| 20260903111517 | 26 | 10 | 11.3 | 20.9 | 0.00 | 0.00 | 0.00 | 53 | 1017.4 |
| 20260903110519 | 25 | 327 | 17.7 | 27.4 | 0.00 | 0.00 | 0.00 | 55 | 1017.5 |
| 20260903105519 | 25 | 223 | 12.9 | 25.7 | 0.00 | 0.00 | 0.00 | 55 | 1017.6 |
| 20260903104539 | 25 | 283 | 24.1 | 48.3 | 0.00 | 0.00 | 0.00 | 53 | 1017.7 |
| 20260903103518 | 25 | 309 | 20.9 | 38.6 | 0.00 | 0.00 | 0.00 | 54 | 1017.8 |
| 20260903102558 | 25 | 307 | 17.7 | 33.8 | 0.00 | 0.00 | 0.00 | 56 | 1017.9 |
| 20260903101518 | 24 | 299 | 14.5 | 33.8 | 0.00 | 0.00 | 0.00 | 57 | 1018.0 |
| 20260903100520 | 24 | 323 | 19.3 | 33.8 | 0.00 | 0.00 | 0.00 | 58 | 1018.1 |
| 20260903095518 | 24 | 292 | 24.1 | 45.1 | 0.00 | 0.00 | 0.00 | 59 | 1018.2 |
| 20260903094517 | 24 | 303 | 22.5 | 35.4 | 0.00 | 0.00 | 0.00 | 60 | 1018.3 |
| 20260903093519 | 23 | 340 | 16.1 | 33.8 | 0.00 | 0.00 | 0.00 | 61 | 1018.4 |
| 20260903092519 | 23 | 261 | 17.7 | 35.4 | 0.00 | 0.00 | 0.00 | 58 | 1018.5 |
| 20260903091539 | 22 | 293 | 20.9 | 48.3 | 0.00 | 0.00 | 0.00 | 65 | 1018.6 |
| 20260903090517 | 22 | 314 | 24.1 | 33.8 | 0.00 | 0.00 | 0.00 | 68 | 1018.7 |
| 20260903085559 | 22 | 313 | 16.1 | 27.4 | 0.00 | 0.00 | 0.00 | 70 | 1018.8 |
| 20260903084517 | 22 | 292 | 20.9 | 48.3 | 0.00 | 0.00 | 0.00 | 70 | 1018.9 |
| 20260903083537 | 21 | 338 | 22.5 | 29.0 | 0.00 | 0.00 | 0.00 | 68 | 1018.9 |
| 20260903082518 | 22 | 321 | 20.9 | 35.4 | 0.00 | 0.00 | 0.00 | 68 | 1019.0 |
| 20260903081519 | 22 | 320 | 17.7 | 32.2 | 0.00 | 0.00 | 0.00 | 68 | 1019.0 |
| 20260903080537 | 21 | 292 | 30.6 | 49.9 | 0.00 | 0.00 | 0.00 | 71 | 1019.0 |
| 20260903075519 | 21 | 298 | 30.6 | 40.2 | 0.00 | 0.00 | 0.00 | 73 | 1019.0 |
| 20260903074518 | 21 | 301 | 30.6 | 49.9 | 0.00 | 0.00 | 0.00 | 77 | 1019.0 |
| 20260903073518 | 20 | 289 | 32.2 | 48.3 | 0.00 | 0.00 | 0.00 | 77 | 1019.1 |
| 20260903072519 | 20 | 287 | 32.2 | 45.1 | 0.00 | 0.00 | 0.00 | 79 | 1018.9 |
| 20260903071519 | 20 | 288 | 29.0 | 43.5 | 0.00 | 0.00 | 0.00 | 77 | 1019.0 |
| 20260903070516 | 20 | 317 | 22.5 | 45.1 | 0.00 | 0.00 | 0.00 | 78 | 1019.0 |
| 20260903065518 | 20 | 298 | 25.7 | 45.1 | 0.00 | 0.00 | 0.00 | 81 | 1019.0 |
| 20260903064520 | 19 | 288 | 35.4 | 46.7 | 0.00 | 0.00 | 0.00 | 81 | 1019.0 |
| 20260903063519 | 19 | 279 | 30.6 | 48.3 | 0.00 | 0.00 | 0.00 | 80 | 1019.0 |
| 20260903062517 | 19 | 283 | 32.2 | 49.9 | 0.00 | 0.00 | 0.00 | 81 | 1019.0 |
| 20260903061538 | 19 | 287 | 32.2 | 43.5 | 0.00 | 0.00 | 0.00 | 79 | 1019.0 |
| 20260903060518 | 19 | 293 | 29.0 | 37.0 | 0.00 | 0.00 | 0.00 | 78 | 1019.1 |
| 20260903055518 | 20 | 349 | 20.9 | 38.6 | 0.00 | 0.00 | 0.00 | 76 | 1019.0 |
| 20260903054516 | 20 | 353 | 9.7 | 16.1 | 0.00 | 0.00 | 0.00 | 77 | 1019.0 |
| 20260903053519 | 18 | 36 | 6.4 | 16.1 | 0.00 | 0.00 | 0.00 | 83 | 1019.1 |
| 20260903052520 | 17 | 347 | 12.9 | 20.9 | 0.00 | 0.00 | 0.00 | 86 | 1019.1 |
| 20260903051519 | 17 | 5 | 9.7 | 17.7 | 0.00 | 0.00 | 0.00 | 87 | 1019.0 |
| 20260903050521 | 17 | 353 | 14.5 | 20.9 | 0.00 | 0.00 | 0.00 | 87 | 1019.1 |
| 20260903045517 | 17 | 4 | 16.1 | 30.6 | 0.00 | 0.00 | 0.00 | 85 | 1019.0 |
| 20260903044521 | 17 | 346 | 11.3 | 20.9 | 0.00 | 0.00 | 0.00 | 87 | 1019.0 |
| 20260903043518 | 17 | 10 | 11.3 | 17.7 | 0.00 | 0.00 | 0.00 | 87 | 1018.9 |
| 20260903042520 | 16 | 359 | 12.9 | 19.3 | 0.00 | 0.00 | 0.00 | 88 | 1018.9 |
| 20260903041518 | 16 | 10 | 16.1 | 22.5 | 0.00 | 0.00 | 0.00 | 89 | 1018.9 |
| 20260903040520 | 16 | 14 | 19.3 | 27.4 | 0.00 | 0.00 | 0.00 | 88 | 1018.7 |
| 20260903035518 | 16 | 14 | 25.7 | 37.0 | 0.00 | 0.00 | 0.00 | 87 | 1018.6 |
| 20260903034521 | 16 | 11 | 25.7 | 37.0 | 0.00 | 0.00 | 0.00 | 87 | 1018.8 |
| 20260903033520 | 16 | 21 | 20.9 | 30.6 | 0.00 | 0.00 | 0.00 | 86 | 1018.9 |
| 20260903032521 | 16 | 4 | 17.7 | 27.4 | 0.00 | 0.00 | 0.00 | 86 | 1018.9 |
| 20260903031517 | 16 | 2 | 22.5 | 32.2 | 0.00 | 0.00 | 0.00 | 85 | 1018.9 |
| 20260903030520 | 17 | 352 | 22.5 | 35.4 | 0.00 | 0.00 | 0.00 | 83 | 1018.8 |
| 20260903025518 | 17 | 348 | 22.5 | 35.4 | 0.00 | 0.00 | 0.00 | 82 | 1018.6 |
| 20260903024520 | 17 | 6 | 29.0 | 41.8 | 0.00 | 0.00 | 0.00 | 81 | 1018.6 |
| 20260903023519 | 17 | 355 | 30.6 | 41.8 | 0.00 | 0.00 | 0.00 | 80 | 1018.7 |
| 20260903022521 | 18 | 13 | 29.0 | 43.5 | 0.00 | 0.00 | 0.00 | 79 | 1018.6 |
| 20260903021539 | 18 | 16 | 22.5 | 43.5 | 0.00 | 0.00 | 0.00 | 77 | 1018.6 |
| 20260903020521 | 18 | 347 | 17.7 | 30.6 | 0.00 | 0.00 | 0.00 | 77 | 1018.7 |
| 20260903015517 | 18 | 354 | 29.0 | 41.8 | 0.00 | 0.00 | 0.00 | 77 | 1018.7 |
| 20260903014517 | 18 | 325 | 22.5 | 41.8 | 0.00 | 0.00 | 0.00 | 77 | 1018.8 |
| 20260903013519 | 18 | 329 | 20.9 | 37.0 | 0.00 | 0.00 | 0.00 | 76 | 1018.7 |
| 20260903012520 | 18 | 4 | 16.1 | 25.7 | 0.00 | 0.00 | 0.00 | 76 | 1018.6 |
| 20260903011539 | 18 | 10 | 16.1 | 29.0 | 0.00 | 0.00 | 0.00 | 76 | 1018.5 |
| 20260903010521 | 18 | 5 | 27.4 | 41.8 | 0.00 | 0.00 | 0.00 | 77 | 1018.5 |
| 20260903005517 | 18 | 8 | 19.3 | 30.6 | 0.00 | 0.00 | 0.00 | 77 | 1018.4 |
| 20260903004521 | 18 | 360 | 16.1 | 24.1 | 0.00 | 0.00 | 0.00 | 78 | 1018.5 |
| 20260903003539 | 18 | 358 | 17.7 | 35.4 | 0.00 | 0.00 | 0.00 | 77 | 1018.4 |
| 20260903002518 | 18 | 340 | 22.5 | 32.2 | 0.00 | 0.00 | 0.00 | 77 | 1018.4 |
| 20260903001518 | 18 | 353 | 27.4 | 40.2 | 0.00 | 0.00 | 0.00 | 76 | 1018.3 |
| 20260903000540 | 19 | 344 | 22.5 | 33.8 | 0.00 | 0.00 | 0.00 | 74 | 1018.5 |
| 20260902235518 | 18 | 343 | 20.9 | 33.8 | 0.00 | 0.00 | 0.00 | 76 | 1018.4 |
| 20260902234521 | 18 | 333 | 17.7 | 49.9 | 0.00 | 0.00 | 0.00 | 76 | 1018.4 |
| 20260902233519 | 19 | 337 | 19.3 | 27.4 | 0.00 | 0.00 | 0.00 | 74 | 1018.2 |
| 20260902232521 | 19 | 353 | 16.1 | 30.6 | 0.00 | 0.00 | 0.00 | 74 | 1018.2 |
| 20260902231538 | 19 | 335 | 11.3 | 20.9 | 0.00 | 0.00 | 0.00 | 74 | 1018.2 |
| 20260902230519 | 20 | 329 | 12.9 | 22.5 | 0.00 | 0.00 | 0.00 | 72 | 1018.3 |
| 20260902225518 | 20 | 349 | 12.9 | 19.3 | 0.00 | 0.00 | 0.00 | 71 | 1018.3 |
| 20260902224519 | 20 | 356 | 11.3 | 19.3 | 0.00 | 0.00 | 0.00 | 71 | 1018.2 |
| 20260902223518 | 20 | 5 | 11.3 | 14.5 | 0.00 | 0.00 | 0.00 | 71 | 1018.3 |
| 20260902222541 | 20 | 1 | 12.9 | 17.7 | 0.00 | 0.00 | 0.00 | 71 | 1018.3 |
| 20260902221518 | 20 | 349 | 12.9 | 17.7 | 0.00 | 0.00 | 0.00 | 71 | 1018.4 |
| 20260902220538 | 20 | 347 | 12.9 | 17.7 | 0.00 | 0.00 | 0.00 | 70 | 1018.4 |